Troy, MI

8:01 AM EDT on September 25, 2017 (GMT -0400)
Troy

Weather History for KVLL - December, 2012

Change the Weather History Date:

Wednesday, December 19, 2012

  Actual Average (KDET) Record (KDET)
Temperature  
Mean Temperature 38 °F -  
Max Temperature 41 °F 35 °F 58 °F (1957)
Min Temperature 34 °F 25 °F 0 °F (1951)
Degree Days  
Heating Degree Days 28    
Moisture  
Dew Point 34 °F    
Average Humidity 82    
Maximum Humidity 90    
Minimum Humidity 70    
Precipitation  
Precipitation 0.00 in - - ()
Sea Level Pressure  
Sea Level Pressure 30.00 in    
Wind  
Wind Speed 3 mph (WNW)    
Max Wind Speed 8 mph    
Max Gust Speed -    
Visibility 7 miles    
Events      
Averages and records for this station are not official NWS values.
T = Trace of Precipitation, MM = Missing Value Source: NWS Daily Summary

Daily Weather History Graph

Daily Weather History Graph

Search for Another Location

Airport or City:

Trip Planner

Search our weather history database for the weather conditions in past years. The results will help you decide how hot, cold, wet, or windy it might be!

Date:

Astronomy

Dec. 19, 2012 Rise Set
Actual Time 7:58 AM EST 5:01 PM EST
Civil Twilight 7:26 AM EST 5:34 PM EST
Nautical Twilight 6:50 AM EST 6:09 PM EST
Astronomical Twilight 6:16 AM EST 6:43 PM EST
Moon 11:58 AM EST (12/19) No Moon Set
Length of Visible Light 10h 07m
Length of Day
9h 03m
Waxing Crescent, 45% of the Moon is Illuminated
Dec 19
Waxing Crescent
Dec 20
First Quarter
Dec 28
Full
Jan 4
Last Quarter
Jan 11
New

Hourly Weather History & Observations

Time (EST) Temp. Windchill Dew Point Humidity Pressure Visibility Wind Dir Wind Speed Gust Speed Precip Events Conditions
12:15 AM 41.9 °F 39.0 °F 33.8 °F 73% 29.76 in 7.0 mi South 4.6 mph - N/A   Overcast
12:34 AM 41.9 °F 39.0 °F 34.0 °F 73% 29.76 in 7.0 mi South 4.6 mph - N/A   Overcast
12:55 AM 41.5 °F - 34.3 °F 76% 29.75 in 7.0 mi Calm Calm - N/A   Overcast
1:14 AM 40.1 °F 38.0 °F 34.7 °F 81% 29.77 in 10.0 mi NNE 3.5 mph - N/A   Overcast
1:35 AM 39.2 °F - 34.7 °F 84% 29.77 in 7.0 mi Calm Calm - N/A   Overcast
1:55 AM 39.2 °F 35.9 °F 34.7 °F 84% 29.78 in 7.0 mi NNE 4.6 mph - N/A   Overcast
2:14 AM 39.0 °F 36.8 °F 34.7 °F 84% 29.79 in 7.0 mi NNE 3.5 mph - N/A   Overcast
2:35 AM 38.8 °F 36.5 °F 34.9 °F 86% 29.81 in 7.0 mi North 3.5 mph - N/A   Overcast
2:54 AM 38.5 °F - 34.7 °F 86% 29.81 in 7.0 mi Calm Calm - N/A   Overcast
3:15 AM 38.7 °F 36.3 °F 35.1 °F 87% 29.82 in 7.0 mi North 3.5 mph - N/A   Overcast
3:34 AM 38.7 °F 35.2 °F 35.1 °F 87% 29.82 in 7.0 mi North 4.6 mph - N/A   Overcast
3:55 AM 38.3 °F 35.9 °F 35.2 °F 89% 29.82 in 5.0 mi North 3.5 mph - N/A   Overcast
4:15 AM 38.3 °F - 35.6 °F 90% 29.84 in 4.0 mi Calm Calm - N/A   Overcast
4:34 AM 39.2 °F - 35.8 °F 88% 29.85 in 5.0 mi Calm Calm - N/A   Overcast
4:55 AM 39.2 °F 37.0 °F 35.6 °F 87% 29.86 in 5.0 mi NW 3.5 mph - N/A   Overcast
5:15 AM 39.0 °F - 35.8 °F 88% 29.86 in 5.0 mi Calm Calm - N/A   Overcast
5:34 AM 39.4 °F - 35.6 °F 86% 29.87 in 5.0 mi Calm Calm - N/A   Overcast
5:55 AM 39.0 °F - 35.6 °F 88% 29.87 in 5.0 mi Calm Calm - N/A   Overcast
6:15 AM 39.2 °F - 35.8 °F 88% 29.88 in 5.0 mi Calm Calm - N/A   Overcast
6:34 AM 39.7 °F - 36.0 °F 86% 29.90 in 5.0 mi Calm Calm - N/A   Overcast
6:55 AM 39.7 °F - 35.8 °F 86% 29.91 in 5.0 mi Calm Calm - N/A   Overcast
7:15 AM 39.4 °F - 35.8 °F 87% 29.92 in 5.0 mi Calm Calm - N/A   Overcast
7:34 AM 39.0 °F - 35.6 °F 88% 29.93 in 5.0 mi Calm Calm - N/A   Overcast
7:55 AM 38.8 °F - 35.6 °F 88% 29.93 in 4.0 mi Calm Calm - N/A   Mostly Cloudy
8:14 AM 38.7 °F 36.3 °F 35.6 °F 89% 29.94 in 2.5 mi WNW 3.5 mph - N/A   Overcast
8:35 AM 39.2 °F 35.0 °F 35.6 °F 87% 29.96 in 3.0 mi NW 5.8 mph - N/A   Overcast
8:55 AM 39.6 °F 34.0 °F 35.1 °F 84% 29.98 in 4.0 mi WNW 8.1 mph - N/A   Haze
9:14 AM 39.4 °F 33.8 °F 34.7 °F 83% 30.00 in 4.0 mi WNW 8.1 mph - N/A   Overcast
9:40 AM 39.7 °F - 34.2 °F 80% 30.00 in 7.0 mi Calm Calm - N/A   Overcast
9:54 AM 40.1 °F - 33.8 °F 78% 30.00 in 7.0 mi Calm Calm - N/A   Overcast
10:15 AM 40.1 °F 36.9 °F 34.2 °F 79% 30.02 in 7.0 mi West 4.6 mph - N/A   Overcast
10:35 AM 40.5 °F 37.3 °F 33.8 °F 77% 30.04 in 7.0 mi West 4.6 mph - N/A   Overcast
10:55 AM 40.5 °F 36.5 °F 33.8 °F 77% 30.05 in 7.0 mi West 5.8 mph - N/A   Overcast
11:15 AM 40.6 °F 36.7 °F 33.8 °F 77% 30.04 in 7.0 mi West 5.8 mph - N/A   Overcast
11:34 AM 40.6 °F 36.0 °F 33.8 °F 77% 30.05 in 7.0 mi West 6.9 mph - N/A   Overcast
11:55 AM 40.6 °F 36.7 °F 33.8 °F 77% 30.07 in 7.0 mi WNW 5.8 mph - N/A   Overcast
12:15 PM 40.5 °F 35.1 °F 33.6 °F 77% 30.07 in 7.0 mi WNW 8.1 mph - N/A   Overcast
12:34 PM 40.3 °F 34.9 °F 33.6 °F 77% 30.07 in 7.0 mi WNW 8.1 mph - N/A   Overcast
12:55 PM 40.3 °F 36.3 °F 33.6 °F 77% 30.06 in 7.0 mi West 5.8 mph - N/A   Overcast
1:14 PM 40.1 °F 36.9 °F 33.8 °F 78% 30.06 in 7.0 mi NW 4.6 mph - N/A   Overcast
1:35 PM 40.1 °F 36.9 °F 33.8 °F 78% 30.06 in 7.0 mi NNW 4.6 mph - N/A   Overcast
1:54 PM 40.3 °F 35.5 °F 33.8 °F 78% 30.07 in 7.0 mi NW 6.9 mph - N/A   Overcast
2:15 PM 40.5 °F 37.3 °F 33.4 °F 76% 30.07 in 10.0 mi West 4.6 mph - N/A   Overcast
2:34 PM 40.6 °F 37.5 °F 33.4 °F 75% 30.07 in 7.0 mi NNW 4.6 mph - N/A   Overcast
2:55 PM 40.6 °F - 33.3 °F 75% 30.08 in 10.0 mi Calm Calm - N/A   Overcast
3:14 PM 41.4 °F 38.4 °F 32.9 °F 72% 30.09 in 10.0 mi WNW 4.6 mph - N/A   Overcast
3:35 PM 41.2 °F - 32.9 °F 72% 30.09 in 10.0 mi Calm Calm - N/A   Overcast
3:55 PM 41.9 °F - 32.9 °F 70% 30.09 in 10.0 mi Calm Calm - N/A   Mostly Cloudy
4:15 PM 41.2 °F - 32.9 °F 72% 30.10 in 10.0 mi Calm Calm - N/A   Scattered Clouds
4:35 PM 41.0 °F - 32.9 °F 73% 30.10 in 10.0 mi Calm Calm - N/A   Scattered Clouds
4:54 PM 40.6 °F - 32.9 °F 74% 30.10 in 10.0 mi Calm Calm - N/A   Clear
5:15 PM 40.1 °F 38.0 °F 32.9 °F 75% 30.12 in 10.0 mi SSW 3.5 mph - N/A   Clear
5:35 PM 39.7 °F 37.6 °F 32.5 °F 75% 30.12 in 10.0 mi South 3.5 mph - N/A   Clear
5:54 PM 39.2 °F 37.0 °F 32.4 °F 76% 30.13 in 10.0 mi SSW 3.5 mph - N/A   Clear
6:15 PM 39.2 °F 37.0 °F 32.5 °F 77% 30.13 in 10.0 mi SSW 3.5 mph - N/A   Clear
6:34 PM 38.7 °F 36.3 °F 32.7 °F 79% 30.14 in 7.0 mi SSW 3.5 mph - N/A   Clear
6:55 PM 38.1 °F - 32.4 °F 80% 30.13 in 7.0 mi Calm Calm - N/A   Clear
7:15 PM 36.1 °F - 32.0 °F 85% 30.15 in 7.0 mi Calm Calm - N/A   Clear
7:34 PM 36.1 °F - 32.2 °F 86% 30.15 in 7.0 mi Calm Calm - N/A   Clear
7:55 PM 35.6 °F - 32.0 °F 87% 30.15 in 5.0 mi Calm Calm - N/A   Clear
8:15 PM 34.7 °F - 32.0 °F 90% 30.15 in 5.0 mi Calm Calm - N/A   Clear
8:34 PM 35.1 °F - 32.0 °F 89% 30.15 in 5.0 mi Calm Calm - N/A   Clear
8:55 PM 34.9 °F - 32.0 °F 89% 30.15 in 5.0 mi Calm Calm - N/A   Clear
9:15 PM 35.2 °F 32.4 °F 32.2 °F 89% 30.14 in 5.0 mi East 3.5 mph - N/A   Clear
9:34 PM 35.6 °F - 32.2 °F 87% 30.13 in 5.0 mi Calm Calm - N/A   Clear
9:55 PM 35.6 °F - 32.4 °F 88% 30.15 in 5.0 mi Calm Calm - N/A   Scattered Clouds
10:15 PM 35.6 °F - 32.0 °F 87% 30.14 in 5.0 mi Calm Calm - N/A   Scattered Clouds
10:34 PM 35.4 °F - 32.2 °F 88% 30.13 in 5.0 mi Calm Calm - N/A   Mostly Cloudy
10:55 PM 36.5 °F - 32.9 °F 87% 30.13 in 5.0 mi Calm Calm - N/A   Scattered Clouds
11:14 PM 36.5 °F - 32.9 °F 87% 30.14 in 5.0 mi Calm Calm - N/A   Scattered Clouds
11:34 PM 36.9 °F 34.3 °F 32.9 °F 86% 30.13 in 5.0 mi ESE 3.5 mph - N/A   Overcast
11:55 PM 37.4 °F 34.9 °F 33.1 °F 84% 30.13 in 7.0 mi ESE 3.5 mph - N/A   Mostly Cloudy